Location: Potawatomi Wildlife Park
(41.2308°N, 86.1050°W)
Time: 11:54:29
(UTC-05:00)

Hubble Space Telescope - Visible Passes

Search period start: 26 February 2017 00:00
Search period end: 08 March 2017 00:00
Orbit: 538 x 542 km, 28.5° (Epoch: 25 February)

Date Brightness Start Highest point End Pass type
(mag) Time Alt. Az. Time Alt. Az. Time Alt. Az.
26 Feb 3.5 20:48:00 10° SSW 20:48:14 11° SSW 20:48:14 11° SSW visible
27 Feb 3.2 20:37:49 10° SSW 20:38:56 13° SSW 20:38:56 13° SSW visible
28 Feb 3.1 20:27:44 10° SSW 20:29:36 14° S 20:29:36 14° S visible
01 Mar 3.0 20:17:43 10° SW 20:19:46 13° S 20:20:16 13° S visible
02 Mar 3.1 20:07:47 10° SW 20:09:39 13° S 20:10:56 11° SSE visible
03 Mar 3.2 19:58:00 10° SSW 19:59:31 12° S 20:01:03 10° SSE visible
04 Mar 3.4 19:48:29 10° SSW 19:49:24 11° SSW 19:50:20 10° S visible
